Hourly Data Report for June 21, 2021

OTTAWA INTL A
ONTARIO
Current Station Operator: NAVCAN

45°19'00.000" N
75°40'00.000" W
114.90 m
6106001
71628
YOW

Download Data

Hourly Data (June 2021)
Hourly Data Report for June 21, 2021
TIME
LST
Temp Definition
°C
Dew Point Definition
°C
Rel Hum Definition
%
Precip. Amount Definition
mm

Wind Dir Definition
10's deg

Wind Spd Definition
km/h
Visibility Definition
km
Stn Press Definition
kPa
Hmdx Definition


Wind Chill Definition


Weather Definition


00:00 19.0 12.8 67   16 7 24.1 99.11     LegendNANA
01:00 18.1 12.8 71   16 4 24.1 99.04     Mostly Cloudy
02:00 17.2 13.5 79   10 7 24.1 98.97     LegendNANA
03:00 17.1 13.8 81   9 10 24.1 98.89     LegendNANA
04:00 17.0 13.9 82   7 7 24.1 98.87     Mostly Cloudy
05:00 16.9 14.3 84   4 13 24.1 98.84     LegendNANA
06:00 18.1 15.2 83   11 11 24.1 98.76     LegendNANA
07:00 18.5 17.0 91   11 10 24.1 98.66     Cloudy
08:00 20.3 18.7 90   17 18 24.1 98.65 27   LegendNANA
09:00 22.2 20.0 87   17 17 24.1 98.52 30   LegendNANA
10:00 22.8 19.3 81   18 26 24.1 98.44 30   Mostly Cloudy
11:00 24.0 19.3 74   20 21 24.1 98.37 31   LegendNANA
12:00 23.1 20.6 86   22 9 24.1 98.33 31   LegendNANA
13:00 25.9 21.1 75   22 18 24.1 98.26 34   Mostly Cloudy
14:00 27.8 20.7 65   23 33 24.1 98.19 36   LegendNANA
15:00 28.6 19.2 56   22 30 24.1 98.12 36   LegendNANA
16:00 28.8 17.4 50   22 34 24.1 98.12 34   Mostly Cloudy
17:00 28.3 18.0 53   19 31 24.1 98.03 34   LegendNANA
18:00 28.0 18.2 55   23 24 24.1 98.06 34   LegendNANA
19:00 24.2 18.4 70   28 14 24.1 98.25 31   Mostly Cloudy
20:00 22.1 18.3 78   25 6 24.1 98.28 28   LegendNANA
21:00 21.9 18.4 81   25 11 24.1 98.44 28   LegendNANA
22:00 21.4 14.5 64   28 30 24.1 98.53 25   Mostly Cloudy
23:00 19.1 12.9 67   29 34 24.1 98.60     LegendNANA

Notes on Data Quality.

Legend

  • E = Estimated
  • M = Missing
  • NA = Not Available*
  • [empty] = Indicates an unobserved value
Date modified: